Total_Precipitation_Accumulation
0.26 0.32 0.37 0.40 0.64 0.81 0.84 0.96 0.92 0.82 0.51 0.34 0.21 0.13 0.08 0.06 0.03 0.02 0.03 0.03 0.02 0.02 0.02 0.01 0.00 0.00 0.00 0.00 0.00 0.00 0.00 0.00 0.00 0.00 0.00 0.00 0.00 0.01 0.00 0.01 0.04 0.04 0.03
0.20 0.19 0.15 0.27 0.31 0.38 0.44 0.47 0.48 0.40 0.24 0.16 0.13 0.11 0.08 0.05 0.03 0.02 0.02 0.02 0.02 0.01 0.02 0.01 0.00 0.00 0.00 0.00 0.00 0.00 0.00 0.00 0.00 0.00 0.00 0.00 0.00 0.00 0.00 0.04 0.05 0.04 0.06
0.07 0.04 0.04 0.08 0.25 0.45 0.39 0.24 0.24 0.18 0.12 0.09 0.09 0.08 0.08 0.07 0.05 0.03 0.02 0.02 0.03 0.02 0.02 0.01 0.00 0.00 0.00 0.00 0.00 0.00 0.00 0.00 0.00 0.00 0.00 0.00 0.00 0.00 0.00 0.01 0.03 0.04 0.06
0.01 0.01 0.02 0.05 0.14 0.26 0.25 0.20 0.18 0.17 0.10 0.08 0.07 0.06 0.06 0.06 0.07 0.05 0.04 0.04 0.03 0.03 0.02 0.01 0.01 0.00 0.00 0.00 0.00 0.00 0.00 0.00 0.00 0.00 0.00 0.01 0.01 0.01 0.00 0.00 0.01 0.04 0.08
0.01 0.00 0.00 0.01 0.02 0.05 0.11 0.14 0.20 0.25 0.17 0.12 0.09 0.08 0.06 0.05 0.06 0.06 0.07 0.07 0.08 0.08 0.07 0.05 0.03 0.02 0.01 0.00 0.00 0.00 0.00 0.00 0.00 0.00 0.00 0.01 0.01 0.01 0.01 0.00 0.00 0.02 0.02
0.01 0.00 0.00 0.00 0.01 0.04 0.06 0.08 0.14 0.19 0.17 0.14 0.13 0.14 0.14 0.12 0.11 0.11 0.11 0.13 0.17 0.18 0.17 0.15 0.12 0.09 0.05 0.02 0.01 0.00 0.00 0.00 0.00 0.00 0.01 0.01 0.01 0.01 0.01 0.01 0.01 0.03 0.02
0.00 0.01 0.01 0.01 0.01 0.03 0.03 0.03 0.05 0.08 0.10 0.09 0.10 0.15 0.23 0.28 0.29 0.25 0.21 0.20 0.21 0.23 0.22 0.21 0.20 0.19 0.15 0.09 0.04 0.01 0.00 0.00 0.00 0.01 0.01 0.01 0.01 0.02 0.03 0.02 0.02 0.03 0.02
0.00 0.00 0.01 0.01 0.01 0.01 0.01 0.01 0.01 0.01 0.02 0.03 0.05 0.07 0.11 0.18 0.26 0.31 0.29 0.30 0.32 0.27 0.23 0.21 0.21 0.23 0.22 0.19 0.13 0.07 0.03 0.01 0.00 0.00 0.00 0.00 0.00 0.01 0.02 0.02 0.02 0.02 0.01
0.00 0.00 0.00 0.00 0.00 0.00 0.00 0.00 0.00 0.00 0.00 0.00 0.01 0.01 0.02 0.03 0.06 0.10 0.14 0.21 0.31 0.30 0.24 0.20 0.19 0.21 0.23 0.24 0.19 0.12 0.07 0.03 0.00 0.00 0.00 0.00 0.00 0.01 0.01 0.04 0.05 0.04 0.01
0.00 0.00 0.00 0.00 0.00 0.00 0.00 0.00 0.00 0.00 0.00 0.00 0.00 0.00 0.01 0.01 0.02 0.03 0.04 0.06 0.11 0.14 0.15 0.15 0.15 0.16 0.18 0.21 0.22 0.19 0.13 0.06 0.02 0.00 0.00 0.00 0.01 0.01 0.02 0.03 0.05 0.06 0.04
0.00 0.00 0.00 0.00 0.00 0.00 0.00 0.00 0.00 0.00 0.00 0.00 0.00 0.00 0.00 0.00 0.00 0.01 0.01 0.01 0.01 0.02 0.03 0.05 0.07 0.08 0.10 0.13 0.16 0.19 0.19 0.13 0.06 0.03 0.01 0.01 0.01 0.01 0.02 0.02 0.02 0.03 0.05
0.00 0.00 0.00 0.00 0.00 0.00 0.00 0.00 0.00 0.00 0.00 0.00 0.00 0.00 0.00 0.00 0.00 0.00 0.00 0.00 0.00 0.00 0.00 0.00 0.01 0.02 0.03 0.05 0.08 0.13 0.17 0.17 0.13 0.09 0.04 0.02 0.01 0.01 0.01 0.00 0.00 0.01 0.04
0.00 0.00 0.00 0.00 0.00 0.00 0.00 0.00 0.00 0.00 0.00 0.00 0.00 0.00 0.00 0.00 0.00 0.00 0.00 0.00 0.00 0.00 0.00 0.00 0.00 0.00 0.01 0.03 0.04 0.05 0.07 0.10 0.13 0.15 0.13 0.08 0.04 0.02 0.00 0.00 0.00 0.00 0.02
0.00 0.00 0.00 0.00 0.00 0.00 0.00 0.00 0.00 0.00 0.00 0.00 0.00 0.01 0.01 0.00 0.00 0.00 0.00 0.00 0.00 0.00 0.00 0.00 0.00 0.00 0.00 0.02 0.04 0.04 0.04 0.04 0.05 0.08 0.12 0.13 0.10 0.05 0.02 0.00 0.00 0.00 0.01
0.00 0.00 0.00 0.00 0.00 0.00 0.00 0.00 0.00 0.00 0.00 0.02 0.01 0.00 0.00 0.00 0.00 0.00 0.00 0.00 0.00 0.00 0.00 0.00 0.00 0.00 0.00 0.01 0.02 0.05 0.05 0.06 0.04 0.04 0.05 0.07 0.07 0.07 0.04 0.01 0.00 0.01 0.02
0.00 0.00 0.00 0.00 0.00 0.00 0.00 0.00 0.00 0.00 0.00 0.01 0.01 0.01 0.01 0.02 0.03 0.02 0.02 0.03 0.02 0.02 0.02 0.01 0.01 0.01 0.01 0.01 0.02 0.03 0.05 0.09 0.10 0.07 0.05 0.04 0.03 0.03 0.03 0.02 0.01 0.01 0.01
0.00 0.00 0.00 0.00 0.00 0.00 0.00 0.00 0.00 0.00 0.00 0.00 0.00 0.00 0.01 0.02 0.04 0.06 0.07 0.06 0.04 0.04 0.05 0.04 0.03 0.01 0.01 0.01 0.01 0.01 0.03 0.06 0.11 0.13 0.10 0.06 0.04 0.03 0.03 0.02 0.01 0.00 0.00
0.00 0.00 0.00 0.00 0.00 0.00 0.00 0.00 0.00 0.00 0.00 0.00 0.01 0.02 0.03 0.05 0.06 0.07 0.08 0.09 0.09 0.09 0.08 0.06 0.05 0.03 0.02 0.02 0.01 0.02 0.04 0.06 0.05 0.09 0.12 0.09 0.05 0.04 0.03 0.03 0.02 0.01 0.00
0.00 0.00 0.00 0.00 0.00 0.00 0.00 0.00 0.00 0.00 0.01 0.02 0.03 0.04 0.06 0.07 0.08 0.09 0.09 0.11 0.12 0.10 0.08 0.06 0.05 0.04 0.03 0.03 0.02 0.02 0.03 0.05 0.04 0.06 0.10 0.11 0.08 0.05 0.04 0.02 0.02 0.01 0.01
0.00 0.00 0.00 0.00 0.00 0.00 0.00 0.01 0.01 0.03 0.04 0.05 0.07 0.08 0.09 0.09 0.09 0.09 0.09 0.10 0.11 0.11 0.09 0.07 0.05 0.05 0.04 0.02 0.02 0.02 0.02 0.04 0.04 0.05 0.10 0.14 0.11 0.08 0.06 0.03 0.02 0.01 0.00
0.00 0.00 0.00 0.00 0.00 0.00 0.01 0.03 0.04 0.05 0.06 0.07 0.08 0.08 0.07 0.07 0.08 0.08 0.07 0.07 0.06 0.06 0.07 0.07 0.06 0.06 0.04 0.02 0.01 0.03 0.03 0.04 0.05 0.07 0.12 0.18 0.17 0.13 0.09 0.06 0.03 0.02 0.01
0.00 0.00 0.00 0.00 0.00 0.01 0.03 0.04 0.04 0.04 0.04 0.06 0.07 0.06 0.06 0.08 0.09 0.10 0.09 0.07 0.05 0.04 0.04 0.05 0.04 0.04 0.03 0.01 0.01 0.01 0.02 0.04 0.06 0.13 0.18 0.22 0.27 0.20 0.16 0.13 0.09 0.04 0.02
0.00 0.00 0.00 0.01 0.01 0.02 0.04 0.07 0.08 0.07 0.07 0.08 0.08 0.08 0.09 0.11 0.13 0.14 0.12 0.10 0.08 0.06 0.05 0.04 0.02 0.02 0.03 0.02 0.00 0.00 0.01 0.03 0.06 0.15 0.27 0.35 0.40 0.33 0.25 0.22 0.18 0.07 0.03
0.00 0.01 0.01 0.02 0.03 0.04 0.06 0.09 0.11 0.12 0.12 0.11 0.10 0.10 0.11 0.10 0.10 0.11 0.10 0.09 0.08 0.08 0.06 0.05 0.03 0.02 0.03 0.02 0.00 0.00 0.00 0.01 0.03 0.13 0.28 0.45 0.55 0.53 0.42 0.34 0.27 0.13 0.05
0.01 0.01 0.03 0.04 0.04 0.05 0.06 0.08 0.10 0.13 0.14 0.13 0.11 0.10 0.07 0.06 0.06 0.05 0.05 0.05 0.06 0.07 0.08 0.07 0.04 0.03 0.02 0.00 0.00 0.00 0.00 0.00 0.02 0.11 0.32 0.50 0.63 0.66 0.60 0.49 0.37 0.21 0.09
0.02 0.03 0.03 0.03 0.04 0.04 0.04 0.04 0.05 0.10 0.15 0.15 0.12 0.10 0.08 0.07 0.06 0.05 0.05 0.06 0.06 0.08 0.09 0.11 0.07 0.02 0.01 0.01 0.01 0.00 0.00 0.00 0.03 0.14 0.33 0.48 0.57 0.61 0.65 0.61 0.48 0.27 0.11